[[{"header":{"parameterUnit":"m.s-1","parameterCategory":1,"la1":30.2991,"la2":30.254,"lo1":-89.0895,"lo2":-89.0444,"dy":0.0017,"dx":0.0017,"nx":28,"ny":28,"refTime":"2023-08-04T21:00:00:Z","depth":0,"parameterNumber":2,"parameterNumberName":"U-component_of_WINDS"},"data":[0,0,0,0,0,0,0,0,0,0,0,0,0,0,0,0,0,0,0,0,0,0,0,0,0,0,0,0,0,0,0,0,0,0,0,0,0,0,0,0,0,0,0,0,0,0,0,0,0,0,0,0,0,0,0,0,0,0,5.6029,5.603,0,5.618,5.6182,5.6184,5.612,5.6116,5.6112,5.6109,5.6265,5.6273,5.628,0,0,0,0,0,0,0,0,0,0,0,0,0,5.5683,5.5689,5.6029,5.603,5.6032,5.618,5.6182,5.6184,5.612,5.6116,5.6111,5.6107,5.6263,5.6272,5.6281,0,0,0,0,0,0,0,0,0,0,0,0,0,5.5834,5.5692,5.6028,5.6018,5.6019,5.618,5.6182,5.6185,5.6121,5.6116,5.611,5.6105,5.626,5.6271,5.6282,5.6462,0,0,5.6317,5.6322,0,0,0,0,0,0,0,0,5.5825,5.5846,5.6018,5.6019,5.602,5.6125,5.6117,5.6278,5.6123,5.6082,5.6109,5.6102,5.6223,5.6237,5.6278,5.6469,5.6476,5.6318,5.6325,5.633,5.6333,0,0,0,0,0,0,0,5.5815,5.5839,5.6089,5.602,5.6022,5.6006,5.6021,5.6148,5.6182,5.6085,5.6081,5.61,5.6223,5.6267,5.6281,5.6478,5.6317,5.6328,5.6335,5.6339,5.6822,5.6828,0,0,0,0,0,0,5.5804,5.5831,5.6084,5.6093,5.5907,5.6017,5.6034,5.6097,5.618,5.6188,5.6104,5.6096,5.625,5.6268,5.6286,5.65,5.6329,5.634,5.6347,5.6816,5.6824,5.683,0,0,0,0,0,0,5.5797,5.5827,5.6078,5.5961,5.5992,5.6028,5.61,5.6103,5.6147,5.6195,5.62,5.6143,5.6247,5.627,5.6418,5.6505,5.6345,5.6356,5.6809,5.6819,5.6827,5.6931,0,0,0,0,0,0,5.5787,5.5825,5.5894,5.5963,5.5998,5.6208,5.6106,5.611,5.6167,5.6158,5.6233,5.624,5.6244,5.6401,5.6429,5.6518,5.6364,5.6802,5.6813,5.6824,5.692,5.6942,5.6962,0,0,0,0,0,5.5775,5.5918,5.5898,5.5929,5.6085,5.6213,5.6233,5.6235,5.6174,5.6243,5.6273,5.6237,5.6491,5.6417,5.6448,5.6541,5.6796,5.681,5.6823,5.6911,5.6938,5.6961,0,0,0,0,0,0,5.5859,5.5927,5.5905,5.6075,5.6139,5.6202,5.6289,5.6264,5.6346,5.6334,5.6333,5.6351,5.6503,5.6537,5.6453,5.6718,5.6634,5.6655,5.669,5.6717,5.6737,5.6725,5.6374,0,0,0,0,0,5.5898,5.5995,5.6049,5.6194,5.6227,5.6253,5.6308,5.6304,5.637,5.6396,5.6437,5.6503,5.6597,5.6659,5.6748,5.6925,5.6939,5.7004,5.7025,5.7042,5.7059,5.7152,5.7181,5.6875,5.6875,5.6874,0,0,5.5978,5.6027,5.6089,5.6212,5.626,5.6361,5.6276,5.6386,5.6461,5.6413,5.6554,5.6587,5.666,5.6822,5.6896,5.6855,5.7146,5.7059,5.7072,5.708,5.7169,5.7198,5.7223,5.6884,5.6882,5.6881,0,0,5.6174,5.6223,5.6347,5.6397,5.6471,5.6487,5.6517,5.6584,5.6603,5.6745,5.6711,5.6799,5.6962,5.7014,5.7062,5.7277,5.7246,5.7307,5.7415,5.7506,5.753,5.7551,5.7626,5.7653,5.7324,5.7324,5.7324,0,5.6265,5.6415,5.6414,5.6527,5.6581,5.6542,5.6667,5.6716,5.6816,5.6854,5.6807,5.7009,5.7056,5.7228,5.728,5.7321,5.7354,5.7297,5.7527,5.7548,5.7568,5.7639,5.7667,5.7331,5.733,5.7329,5.7329,0,5.6521,5.6625,5.6717,5.6813,5.6878,5.6996,5.7013,5.7078,5.7069,5.7089,5.7233,5.7287,5.7386,5.7427,5.7419,5.7598,5.757,5.7526,5.7441,5.7604,5.767,5.7697,5.734,5.7338,5.7336,5.7334,0,0,5.6775,5.6868,5.6901,5.6943,5.7021,5.7102,5.7218,5.7314,5.7369,5.744,5.7536,5.7674,5.7632,5.7686,5.7684,5.7764,5.7928,5.7709,5.7711,5.7746,5.8125,5.8157,5.8188,5.7908,5.7913,5.7918,5.8118,0,5.6975,5.7178,5.718,5.7367,5.7462,5.7426,5.7527,5.7585,5.7608,5.7692,5.7716,5.7813,5.7752,5.7784,5.7862,5.7891,5.8003,5.7877,5.7996,5.8,5.7977,5.8224,5.8258,5.8445,5.8145,5.8149,5.8152,0,5.7237,5.7314,5.751,5.7572,5.7612,5.7703,5.7789,5.787,5.7935,5.7946,5.8006,5.7991,5.8108,5.8021,5.8182,5.8096,5.8145,5.8166,5.8173,5.8183,5.8085,5.8237,5.8505,5.8532,5.8194,5.819,5.8187,0,5.7399,5.7552,5.7688,5.7726,5.7803,5.7867,5.7902,5.7962,5.8018,5.8094,5.813,5.8219,5.8268,5.8337,5.8345,5.8282,5.8506,5.8421,5.8517,5.8517,5.8564,5.8561,5.8841,5.86,5.86,5.8599,5.8598,0,5.7622,5.7743,5.7762,5.7846,5.7979,5.798,5.8112,5.8141,5.8195,5.8283,5.8258,5.8341,5.8348,5.8434,5.8442,5.8572,5.8595,5.8606,5.8606,5.8607,5.8605,5.8637,5.8624,5.8606,5.8605,5.8603,5.8602,0,5.7826,5.7844,5.7989,5.8049,5.8067,5.8163,5.8214,5.8293,5.8313,5.8424,5.845,5.8481,5.858,5.8596,5.8713,5.8718,5.8873,5.8861,5.8851,5.8848,5.8943,5.8933,5.9251,5.9292,5.9027,5.903,5.9032,0,5.7966,5.8057,5.8127,5.8183,5.8221,5.8314,5.8371,5.8375,5.8435,5.8515,5.8584,5.8681,5.8757,5.8917,5.895,5.9038,5.9027,5.9133,5.904,5.9037,5.9025,5.9019,5.9027,5.915,5.9153,5.9155,5.9157,0,5.8212,5.8215,5.8298,5.8384,5.8453,5.8521,5.8585,5.8633,5.8645,5.8714,5.8814,5.8874,5.8992,5.9087,5.9175,5.921,5.9186,5.9186,5.9212,5.9213,5.9202,5.9206,5.8897,5.9178,5.9176,5.9175,5.9173,5.9173,5.8386,5.8465,5.8525,5.8618,5.8666,5.8726,5.8803,5.8831,5.8914,5.901,5.9008,5.9117,5.9178,5.9293,5.9335,5.942,5.9385,5.9425,5.9434,5.9443,5.9451,5.919,5.9436,5.9436,5.9435,5.9435,5.9434,0,5.8628,5.8665,5.875,5.884,5.8912,5.8882,5.8951,5.9014,5.911,5.9169,5.9245,5.9359,5.945,5.949,5.9579,5.964,5.9631,5.9663,5.9658,5.9666,5.9478,5.9444,5.9669,5.9669,5.9669,5.9669,5.9669,5.9669,5.8762,5.8893,5.8904,5.9057,5.9093,5.9199,5.9241,5.9296,5.9342,5.947,5.9546,5.9571,5.9621,5.9714,5.9796,5.9805,5.9839,5.9876,5.988,5.9703,5.9679,5.9656,5.9625,5.9884,5.9884,6.006,6.0062,6.0063]},{"header":{"parameterUnit":"m.s-1","parameterCategory":1,"la1":30.2991,"la2":30.254,"lo1":-89.0895,"lo2":-89.0444,"dy":0.0017,"dx":0.0017,"nx":28,"ny":28,"refTime":"2023-08-04T21:00:00:Z","depth":0,"parameterNumber":3,"parameterNumberName":"V-component_of_WINDS"},"data":[0,0,0,0,0,0,0,0,0,0,0,0,0,0,0,0,0,0,0,0,0,0,0,0,0,0,0,0,0,0,0,0,0,0,0,0,0,0,0,0,0,0,0,0,0,0,0,0,0,0,0,0,0,0,0,0,0,0,1.4274,1.4274,0,1.4357,1.4358,1.4359,1.4357,1.4356,1.4355,1.4354,1.444,1.4443,1.4446,0,0,0,0,0,0,0,0,0,0,0,0,0,1.4111,1.4114,1.4273,1.4275,1.4276,1.4357,1.4358,1.4359,1.4357,1.4356,1.4354,1.4353,1.4439,1.4442,1.4447,0,0,0,0,0,0,0,0,0,0,0,0,0,1.4187,1.4115,1.4273,1.4284,1.4286,1.4357,1.4358,1.436,1.4357,1.4356,1.4354,1.4352,1.4437,1.4442,1.4447,1.4512,0,0,1.4462,1.4465,0,0,0,0,0,0,0,0,1.4183,1.4193,1.4282,1.4284,1.4286,1.4345,1.4333,1.4411,1.4358,1.433,1.4354,1.4352,1.441,1.4417,1.4436,1.4516,1.452,1.4463,1.4466,1.4468,1.447,0,0,0,0,0,0,0,1.4178,1.4189,1.4307,1.4283,1.4286,1.4285,1.4294,1.4347,1.4379,1.4333,1.4333,1.4343,1.441,1.4431,1.4438,1.4521,1.4463,1.4467,1.447,1.4472,1.4658,1.466,0,0,0,0,0,0,1.417,1.4185,1.4304,1.4309,1.4229,1.4289,1.4299,1.4328,1.4378,1.4384,1.4344,1.4342,1.4424,1.4432,1.4441,1.4521,1.4468,1.4473,1.4476,1.4657,1.4659,1.4661,0,0,0,0,0,0,1.4167,1.4181,1.4301,1.4247,1.4262,1.4294,1.4326,1.433,1.4351,1.4387,1.4392,1.436,1.4423,1.4434,1.4495,1.4524,1.4475,1.448,1.4654,1.4657,1.466,1.4681,0,0,0,0,0,0,1.4162,1.4179,1.4205,1.4248,1.4265,1.4353,1.4328,1.4333,1.436,1.4358,1.4403,1.4409,1.4422,1.4487,1.4499,1.453,1.4484,1.4652,1.4656,1.4659,1.4677,1.4684,1.4689,0,0,0,0,0,1.4156,1.4208,1.4206,1.422,1.4298,1.4354,1.4364,1.4379,1.4362,1.4388,1.441,1.4407,1.4518,1.4493,1.4507,1.4539,1.465,1.4655,1.4659,1.4675,1.4682,1.4689,0,0,0,0,0,0,1.4168,1.4213,1.4212,1.4279,1.4313,1.4354,1.4387,1.4387,1.4426,1.4423,1.4439,1.4449,1.451,1.4531,1.4502,1.4605,1.4582,1.4589,1.4589,1.4597,1.4603,1.4597,1.4488,0,0,0,0,0,1.4178,1.422,1.4258,1.4313,1.433,1.4356,1.4381,1.4389,1.4425,1.4439,1.4466,1.4501,1.4543,1.4571,1.4612,1.468,1.4689,1.4709,1.4715,1.4719,1.4726,1.4762,1.4772,1.4675,1.4675,1.4675,0,0,1.42,1.423,1.4256,1.4316,1.4343,1.4387,1.4368,1.4415,1.4447,1.4446,1.4505,1.4526,1.4565,1.4629,1.4659,1.4649,1.4754,1.4725,1.4728,1.4732,1.4768,1.4777,1.4785,1.4678,1.4678,1.4677,0,0,1.4262,1.4289,1.4338,1.4365,1.4406,1.4422,1.4434,1.4475,1.4489,1.4548,1.4548,1.4586,1.4659,1.4688,1.4711,1.4782,1.4781,1.4795,1.4827,1.4862,1.487,1.4876,1.4902,1.4911,1.4801,1.4801,1.4801,0,1.4284,1.4349,1.4363,1.441,1.4436,1.4437,1.4486,1.4512,1.4565,1.4583,1.457,1.4661,1.4688,1.4759,1.4776,1.4795,1.4809,1.4791,1.4867,1.4874,1.4881,1.4905,1.4915,1.4803,1.4803,1.4803,1.4802,0,1.4374,1.442,1.4454,1.4504,1.4534,1.4582,1.4603,1.4632,1.4637,1.4654,1.4714,1.4746,1.4793,1.481,1.4816,1.4881,1.4873,1.4864,1.4841,1.4891,1.4914,1.4924,1.4805,1.4805,1.4804,1.4804,0,0,1.4448,1.4504,1.4516,1.4538,1.4583,1.4618,1.4666,1.4712,1.4736,1.4772,1.4812,1.4873,1.4864,1.4891,1.49,1.4931,1.4985,1.4918,1.4919,1.4929,1.5059,1.5066,1.5076,1.4984,1.4985,1.4987,1.5055,0,1.4514,1.4599,1.4612,1.4686,1.4728,1.4728,1.477,1.4801,1.4818,1.4856,1.4875,1.4918,1.4903,1.492,1.495,1.4972,1.5011,1.4967,1.5021,1.5023,1.5012,1.5089,1.5097,1.516,1.5064,1.5066,1.5067,0,1.4604,1.4642,1.472,1.4758,1.4776,1.4813,1.4856,1.4892,1.4927,1.4938,1.4967,1.4972,1.502,1.4995,1.5062,1.5032,1.5055,1.5068,1.5071,1.5077,1.5049,1.5097,1.518,1.519,1.5081,1.508,1.5079,0,1.465,1.472,1.4776,1.4795,1.4841,1.4867,1.4887,1.4921,1.4947,1.4984,1.5001,1.5044,1.5067,1.51,1.5115,1.5095,1.5181,1.5157,1.5191,1.5191,1.521,1.5209,1.5298,1.5224,1.5224,1.5223,1.5223,0,1.4723,1.4771,1.4797,1.4831,1.4885,1.4898,1.4951,1.497,1.5,1.5038,1.5041,1.5076,1.5094,1.5132,1.5145,1.5198,1.5209,1.5218,1.5221,1.5219,1.5217,1.5234,1.523,1.5226,1.5225,1.5225,1.5225,0,1.4784,1.4803,1.4863,1.4901,1.4912,1.495,1.4982,1.5015,1.5032,1.508,1.5092,1.5117,1.5162,1.5181,1.5236,1.5244,1.5305,1.5305,1.5294,1.5295,1.5327,1.5324,1.5432,1.5446,1.5362,1.5362,1.5363,0,1.483,1.4867,1.4908,1.4934,1.4955,1.4996,1.5023,1.5037,1.5065,1.5108,1.5136,1.518,1.5217,1.5288,1.5312,1.5354,1.5354,1.5389,1.5361,1.5356,1.5355,1.5353,1.5356,1.5394,1.5395,1.5396,1.5396,0,1.491,1.4917,1.4955,1.4997,1.5029,1.5063,1.5095,1.5116,1.5135,1.5166,1.5212,1.524,1.5296,1.534,1.5383,1.5404,1.5404,1.5405,1.5415,1.5413,1.5405,1.541,1.5308,1.5403,1.5402,1.5402,1.5401,1.5401,1.4964,1.4997,1.5031,1.5074,1.51,1.513,1.5163,1.5183,1.5221,1.5268,1.5274,1.5323,1.5356,1.5414,1.5436,1.5474,1.5465,1.548,1.5483,1.5487,1.5489,1.5398,1.5482,1.5482,1.5481,1.5481,1.5481,0,1.5044,1.5066,1.5105,1.515,1.5184,1.518,1.5216,1.5244,1.5287,1.5318,1.5354,1.5406,1.5448,1.5474,1.5517,1.5543,1.5543,1.5553,1.5552,1.5557,1.5495,1.5482,1.5552,1.5552,1.5552,1.5552,1.5552,1.5552,1.509,1.5145,1.5156,1.5223,1.5244,1.5292,1.5313,1.534,1.5365,1.5423,1.5458,1.5475,1.5504,1.5549,1.5588,1.5594,1.561,1.562,1.5626,1.5568,1.5561,1.5554,1.5542,1.5624,1.5624,1.5685,1.5686,1.5686]}]]